SCP
0 0 0 0 0 0 0 0 0 0 0 0 0 0 0 0 0 0 0 0 0 0 1 1 1 1 1 1 1 1 1 1 1 1 1 1 1 1 1 1 0 0 0 0 0 0 0 0 0
0 0 0 0 0 0 0 0 0 0 0 0 0 0 0 0 0 0 0 0 0 0 1 1 1 1 1 1 1 1 1 1 1 1 1 1 1 1 1 1 0 0 0 0 0 0 0 0 0
0 0 0 0 0 0 0 0 0 0 0 0 0 0 0 0 0 0 0 0 0 1 1 1 1 1 1 1 1 1 1 1 1 1 1 1 1 1 1 1 0 0 0 0 0 0 0 0 0
0 0 0 0 0 0 0 0 0 0 0 0 0 0 0 0 0 0 0 0 1 1 1 1 1 1 1 1 1 1 1 1 1 1 1 1 1 1 1 0 0 0 0 0 0 0 0 0 0
0 0 0 0 0 0 0 0 0 0 0 0 0 0 0 0 0 0 0 1 1 1 1 1 1 1 1 1 1 1 1 1 1 1 1 1 1 1 1 0 0 0 0 0 0 0 0 0 0
-0 0 0 0 0 0 0 0 0 0 0 0 0 0 0 0 0 0 0 1 1 1 1 1 1 1 1 1 1 1 1 1 1 1 1 1 1 1 1 0 0 0 0 0 0 0 0 0 0
-0 -0 0 0 0 0 0 0 0 0 0 0 0 0 0 0 0 0 0 1 1 1 1 1 0 0 1 1 1 1 1 1 1 1 1 1 1 0 0 0 0 0 0 0 0 0 0 0 0
-0 -0 0 0 0 0 0 0 0 0 0 0 0 0 0 0 0 1 1 1 1 1 1 0 0 0 0 1 1 1 1 1 1 1 1 0 0 0 0 0 0 0 0 0 0 0 0 0 0
-0 -0 -0 0 0 0 0 0 0 0 0 0 0 0 0 0 1 1 1 1 1 1 1 0 0 0 0 0 1 1 1 1 1 1 1 0 0 0 0 0 0 0 0 0 0 0 0 0 0
-0 -0 0 0 0 0 0 0 0 0 0 0 0 0 1 1 1 1 1 1 0 0 0 0 0 0 0 0 1 1 1 1 1 1 0 0 0 0 0 0 0 0 0 0 0 0 0 0 0
0 0 0 0 0 0 0 0 0 0 0 0 0 0 1 1 1 1 1 0 0 0 0 0 0 0 0 0 1 1 1 1 1 0 0 0 0 0 0 0 0 0 0 0 0 0 0 0 0
0 0 0 0 0 0 0 0 0 0 0 0 0 1 1 1 0 0 0 0 0 0 0 0 0 0 0 0 0 0 0 1 0 0 0 0 0 0 0 0 0 0 0 0 0 0 0 0 0
0 0 0 0 0 0 0 0 0 0 0 0 0 1 1 0 0 0 0 0 0 0 0 0 0 0 0 0 0 0 0 0 0 0 0 0 0 0 0 0 0 0 0 0 0 0 0 0 0
0 0 0 0 0 0 0 0 0 0 0 0 0 0 0 0 0 0 0 0 0 0 0 0 0 0 0 0 0 0 0 0 0 0 0 0 0 0 0 0 0 0 0 0 0 0 0 0 0
0 0 0 0 0 0 0 0 0 0 0 0 0 0 0 0 0 0 0 0 0 0 0 0 0 0 0 0 0 0 0 0 0 0 0 0 0 0 0 0 0 0 0 0 0 0 0 0 0
0 0 0 0 0 0 0 0 0 0 0 0 0 0 0 0 0 0 0 0 0 0 0 0 0 0 0 0 0 0 0 0 0 0 0 0 0 0 0 0 0 0 0 0 0 0 0 0 0
0 0 0 0 0 0 0 0 0 0 0 0 0 0 0 0 0 0 0 0 0 0 0 0 0 0 0 0 0 0 0 0 0 0 0 0 0 0 0 0 0 0 0 0 0 0 0 0 0
0 0 0 0 0 0 0 0 0 0 0 0 0 0 0 0 0 0 0 0 0 0 0 0 0 0 0 0 0 0 0 0 0 0 0 0 0 0 0 0 0 0 0 0 0 0 0 0 0
0 0 0 0 0 0 0 0 0 0 0 0 0 0 0 0 0 0 0 0 0 0 0 0 0 0 0 0 0 0 0 0 0 0 0 0 0 0 0 0 0 0 0 0 0 0 0 0 0
0 0 0 0 0 0 0 0 0 0 0 0 0 0 0 0 0 0 0 0 0 0 0 0 0 0 0 0 0 0 0 0 0 0 0 0 0 0 0 0 0 0 0 0 0 0 0 0 0
0 0 0 0 0 0 0 0 0 0 0 0 0 0 0 0 0 0 0 0 0 0 0 0 0 0 0 0 0 0 0 0 0 0 0 0 0 0 0 0 0 0 0 0 0 0 0 0 0
0 0 0 0 0 0 0 0 0 0 0 0 0 0 0 0 0 0 0 0 0 0 0 0 0 0 0 0 0 0 0 0 0 0 0 0 0 0 0 0 0 0 0 0 0 0 0 0 0
-0 0 0 0 0 0 0 0 0 0 0 0 0 0 0 0 0 0 0 0 0 0 0 0 0 0 0 0 0 0 0 0 0 0 0 0 0 0 0 0 0 0 0 0 0 0 0 0 0
0 0 0 0 0 0 0 0 0 0 0 0 0 0 0 0 0 0 0 0 0 0 0 0 0 0 0 0 0 0 0 0 0 0 0 0 0 0 0 0 0 0 0 0 0 0 0 0 0
0 0 0 0 0 0 0 0 0 0 0 0 0 0 0 0 0 0 0 0 0 0 0 0 0 0 0 0 0 0 0 0 0 0 0 0 0 0 0 0 0 0 0 0 0 0 0 0 0
0 0 0 0 0 0 0 0 0 0 0 0 0 0 0 0 0 0 0 0 0 0 0 0 0 0 0 0 0 0 0 0 0 0 0 0 0 0 0 0 0 0 0 0 0 0 0 0 0
0 0 0 0 0 0 0 0 0 0 0 0 0 0 0 0 0 0 0 0 0 0 0 0 0 0 0 0 0 0 0 0 0 0 0 0 0 0 0 0 0 0 0 0 0 0 0 0 0
0 0 0 0 0 0 0 0 0 0 0 0 0 0 0 0 0 0 0 0 0 0 0 0 0 0 0 0 0 0 0 0 0 0 0 0 0 0 0 0 0 0 0 0 0 0 0 0 0
0 0 0 0 0 0 0 0 0 0 0 0 0 0 0 0 0 0 0 0 0 0 0 0 0 0 0 0 0 0 0 0 0 0 0 0 0 0 0 0 0 0 0 0 0 0 0 0 0
0 0 0 0 0 0 0 0 0 0 0 0 0 0 0 0 0 0 0 0 0 0 0 -0 -0 0 0 0 0 0 0 0 0 0 0 0 0 0 0 0 0 0 0 0 0 0 0 0 0
Wind_Speed
1 1 2 3 5 5 2 3 2 2 2 1 2 3 4 2 2 1 1 5 7 8 7 9 10 10 10 10 10 10 10 10 11 11 11 11 11 10 11 11 10 11 10 10 9 9 9 9 8
2 2 3 4 5 3 3 3 1 1 1 1 3 3 4 2 1 2 1 4 7 8 6 7 10 10 10 10 10 10 9 10 9 10 10 10 10 10 10 10 9 9 9 9 9 9 9 8 8
2 2 4 5 4 3 2 2 1 1 1 1 2 3 2 1 1 1 2 7 8 7 6 6 10 9 9 10 10 10 9 9 9 9 9 9 9 8 8 8 8 8 8 8 8 8 7 7 8
2 3 5 5 1 3 3 4 2 1 3 2 2 2 2 3 1 3 7 9 9 6 5 6 10 9 9 10 10 9 9 8 8 8 8 8 8 8 8 8 7 7 7 7 7 7 7 7 7
3 4 5 3 1 2 3 3 1 0 1 1 2 3 1 4 5 7 8 9 9 6 5 5 8 8 9 9 9 9 8 7 7 7 8 7 7 7 7 7 7 6 6 5 5 5 5 6 6
4 5 5 0 2 2 2 1 1 1 1 0 2 3 1 3 5 6 7 7 7 7 5 4 6 6 7 7 7 7 7 7 6 6 6 6 6 6 6 6 6 5 5 5 5 5 5 5 5
4 4 3 2 1 2 2 1 1 0 0 0 1 4 1 2 3 6 7 7 7 6 5 4 3 4 5 6 6 6 6 5 5 5 5 5 5 5 5 4 4 4 4 4 4 4 5 5 5
4 5 2 1 2 4 2 1 1 1 1 1 2 4 2 2 5 7 8 7 6 5 4 3 2 2 2 2 4 5 4 4 4 4 4 4 3 3 4 3 4 4 4 4 4 3 3 3 3
4 5 1 4 4 4 1 0 1 2 2 2 2 2 4 9 9 8 7 5 4 4 3 2 2 2 1 1 2 3 3 3 3 3 4 3 1 1 2 2 3 4 4 4 4 3 3 3 3
4 3 6 5 5 3 2 1 1 2 2 2 3 5 8 9 9 8 7 6 4 3 2 2 2 2 1 1 1 1 1 1 1 1 1 1 1 0 1 1 3 3 3 4 4 4 4 3 2
4 5 4 3 4 3 2 1 1 4 0 2 4 6 7 7 6 6 6 5 4 3 3 1 1 1 1 1 1 1 1 1 1 1 1 1 1 0 0 0 2 2 2 2 2 2 2 2 1
2 4 3 3 1 2 3 2 2 2 2 2 6 8 7 7 5 5 4 3 3 3 2 1 1 1 1 1 1 1 0 1 1 1 1 1 1 1 1 1 1 1 1 1 1 1 2 2 2
2 2 2 2 0 2 4 3 3 2 3 6 8 8 6 5 4 3 3 3 3 2 2 1 1 1 0 1 0 1 0 1 1 1 1 2 2 2 1 1 1 1 1 1 1 2 2 2 3
2 1 2 2 1 2 5 2 3 1 5 7 8 6 5 4 3 3 3 2 2 2 1 1 1 1 0 0 0 1 1 1 1 1 1 2 2 1 1 1 1 1 1 1 2 2 2 2 2
1 2 4 3 1 1 5 4 2 1 6 7 6 5 5 4 3 2 2 2 2 2 1 1 1 0 0 0 1 1 1 1 1 1 1 2 2 2 1 1 1 2 1 1 1 2 2 2 2
3 3 2 3 2 1 5 1 1 3 7 6 5 5 4 3 2 2 2 1 1 1 1 0 0 1 1 1 0 1 0 0 1 1 1 1 2 2 1 1 1 1 1 1 1 1 1 2 2
4 1 2 3 1 2 4 2 1 4 6 5 4 3 3 2 2 2 1 1 1 1 1 1 1 1 1 1 1 1 1 1 1 1 1 1 1 1 1 1 1 1 1 1 1 1 1 2 2
3 2 2 3 1 4 4 2 2 4 5 4 3 2 2 1 0 1 1 2 2 1 1 0 1 1 1 1 1 0 0 1 0 1 1 1 1 1 1 1 1 1 1 1 1 1 1 1 1
3 3 2 3 1 4 4 3 2 4 4 3 2 1 1 0 0 1 1 2 2 2 1 1 1 1 1 0 1 1 1 1 1 1 0 0 1 1 1 1 1 1 1 2 2 1 1 1 0
3 2 2 2 2 4 4 3 2 2 2 2 3 2 1 0 1 1 1 1 1 0 1 2 1 2 1 1 1 1 1 1 1 1 1 1 1 1 2 2 2 2 1 2 1 1 1 1 0
2 4 4 3 3 4 4 3 2 1 2 1 0 1 1 1 1 1 1 0 0 1 1 2 2 2 1 1 0 0 1 1 1 1 1 1 1 2 2 3 2 2 2 2 2 2 3 1 1
3 3 4 4 4 1 1 1 2 0 1 1 1 1 1 1 1 1 1 1 1 2 1 2 2 1 1 0 1 1 1 1 2 1 2 3 2 2 2 3 3 2 2 2 3 2 2 2 1
2 2 4 4 4 3 3 2 4 1 2 3 3 2 2 1 1 1 1 2 2 1 1 2 2 2 1 0 1 1 1 2 1 1 2 2 2 2 2 2 2 2 2 3 2 2 2 2 2
3 5 6 6 5 2 2 2 4 2 3 3 3 2 2 1 1 2 1 1 2 1 1 1 1 2 2 1 0 1 2 1 1 2 2 2 2 2 2 2 2 2 2 2 2 2 2 2 3
5 6 4 5 4 3 1 1 5 3 2 3 3 2 1 1 1 2 2 2 2 2 2 2 1 2 2 1 1 1 2 2 2 2 2 2 2 2 3 2 2 2 2 2 2 2 2 2 3
1 5 6 4 3 3 2 2 5 2 1 0 1 1 1 1 1 2 2 2 3 2 2 2 1 2 2 1 2 2 2 1 2 2 2 2 2 3 3 2 2 2 2 2 1 1 2 2 2
3 2 3 6 2 0 3 4 4 1 2 2 1 1 1 2 2 2 3 3 3 3 2 2 2 2 2 2 2 2 2 2 2 2 2 2 2 2 2 2 2 2 1 1 1 1 2 2 2
4 5 5 5 3 1 3 3 3 3 3 2 2 2 3 2 3 3 3 4 3 3 2 2 1 2 2 2 1 1 2 2 2 1 2 2 2 2 2 2 2 2 1 1 1 1 2 1 1
2 4 5 4 4 4 2 5 3 4 3 3 3 2 3 3 3 3 3 3 3 2 2 1 2 2 2 2 2 2 2 1 1 1 2 2 2 2 2 2 1 1 1 1 1 1 1 1 1
2 3 5 3 1 2 2 6 3 2 2 2 3 2 2 3 3 2 3 2 3 3 3 2 2 2 2 2 1 1 2 1 1 2 2 2 2 2 1 1 1 1 1 1 0 1 1 1 1
Wind_Direction
139 94 94 72 56 49 349 294 279 311 349 6 58 97 116 116 145 207 342 122 125 133 142 150 151 148 143 137 133 130 130 131 134 135 139 142 145 149 153 157 160 165 168 170 172 172 173 175 175
137 130 72 61 76 55 303 279 284 268 201 33 48 61 73 63 63 80 73 121 125 128 130 144 151 149 145 141 138 134 134 134 135 138 142 146 150 155 160 163 167 171 173 176 179 180 180 181 182
148 103 87 72 88 165 245 271 226 347 3 52 70 52 73 59 77 115 128 127 117 119 123 145 146 147 146 145 144 141 141 140 140 142 145 149 152 153 159 165 171 175 179 183 186 189 190 191 193
97 56 60 74 93 226 228 257 251 323 2 25 106 78 61 27 26 119 122 122 117 116 120 138 140 141 142 143 143 141 141 140 142 147 148 151 155 159 163 168 172 176 181 188 190 194 197 199 201
65 78 63 51 279 258 245 252 235 124 348 29 106 115 42 15 69 104 118 123 124 118 111 124 137 141 141 141 142 142 143 144 147 152 155 156 160 163 167 173 179 184 189 192 191 195 200 208 210
58 67 81 65 265 265 256 218 137 109 186 144 111 115 55 35 82 104 110 110 112 114 108 111 129 137 142 147 149 149 150 151 155 160 162 163 166 169 173 178 182 187 192 201 204 205 210 218 224
101 94 133 188 251 273 236 173 160 227 344 331 121 116 112 58 80 98 100 97 98 106 110 111 122 131 143 150 153 153 154 158 159 162 164 168 173 177 178 184 189 196 205 214 218 217 219 227 229
120 100 95 214 217 252 242 122 92 98 271 21 100 136 175 146 110 95 89 86 90 94 97 97 105 110 123 149 153 149 154 162 162 167 168 172 186 195 193 199 197 210 224 228 230 233 233 234 238
91 77 199 218 207 241 229 115 14 67 93 58 44 90 129 130 119 106 100 90 97 103 101 112 94 92 110 142 150 156 163 168 175 185 184 180 191 210 217 223 209 225 236 240 234 238 245 242 244
94 136 228 218 199 198 218 204 177 86 72 56 53 69 110 125 126 127 133 139 144 147 148 135 116 99 96 143 126 136 158 171 185 167 175 164 140 203 187 256 237 242 251 256 251 245 247 246 248
157 199 237 251 213 169 171 182 103 124 151 208 169 142 134 131 131 137 145 154 161 160 153 151 128 111 101 105 122 113 123 135 177 184 175 155 144 166 225 285 280 277 270 278 278 275 267 252 238
189 247 237 255 188 149 160 136 78 98 215 171 153 143 139 138 142 145 145 149 142 141 154 154 125 99 90 83 107 138 149 157 189 221 187 164 178 195 212 226 260 275 279 279 288 274 275 273 260
207 274 311 274 14 122 104 99 107 42 73 97 108 114 121 126 129 124 126 124 127 152 165 162 115 81 44 68 70 119 194 191 195 222 217 189 190 213 216 229 247 265 265 261 265 268 270 270 265
228 267 310 332 60 100 109 78 79 49 90 95 103 110 113 115 119 111 107 127 158 171 173 190 166 161 163 186 176 194 209 210 196 211 222 203 195 198 211 229 258 269 261 254 253 258 260 264 261
48 16 352 352 27 116 102 43 26 119 108 103 105 105 94 85 82 104 133 157 173 177 184 202 186 103 64 254 223 193 214 210 221 229 230 211 195 191 194 220 243 261 264 261 265 272 268 266 268
37 43 347 312 40 80 107 170 342 121 120 115 113 107 91 68 66 86 96 98 127 137 125 9 10 11 338 331 274 241 227 224 241 233 231 226 214 199 186 214 249 257 252 248 249 261 270 267 266
30 20 277 303 6 108 117 163 102 114 121 119 117 115 106 82 43 41 62 77 97 133 111 31 345 341 322 320 333 240 209 225 239 224 214 222 227 199 181 217 254 252 241 251 255 248 246 254 263
235 229 261 259 272 99 111 128 106 112 121 126 128 123 110 105 30 12 44 73 70 54 64 55 298 328 316 316 344 322 300 281 263 242 232 211 216 198 187 220 262 251 244 273 270 274 266 255 262
190 187 242 262 197 101 115 111 109 117 116 121 133 147 146 216 348 45 39 58 57 27 4 321 331 329 328 281 265 255 250 262 271 265 257 225 216 200 195 237 257 245 230 243 241 231 251 268 264
184 194 246 307 72 110 105 74 74 99 140 154 169 181 200 320 7 9 44 45 55 338 315 310 309 300 294 255 243 225 225 243 240 264 316 296 241 235 222 220 234 230 230 254 243 215 202 243 139
204 194 204 183 77 77 96 31 28 54 69 63 120 203 216 213 227 268 297 287 289 273 284 293 285 289 293 283 298 24 38 356 6 339 320 304 286 260 239 228 229 229 214 227 232 206 193 209 233
259 233 179 154 121 84 91 193 286 300 348 323 298 295 273 270 260 260 262 287 283 272 281 285 283 290 292 263 144 148 167 228 246 258 281 304 300 282 254 235 226 222 219 226 234 206 199 184 215
225 57 100 107 113 74 31 116 282 353 296 286 292 308 307 305 289 282 257 258 280 286 300 294 308 316 310 296 174 168 215 229 267 292 294 299 301 291 276 248 233 233 232 232 229 213 198 191 201
116 68 58 52 69 50 307 154 275 247 235 267 293 307 301 302 322 317 316 313 302 310 313 302 322 324 324 327 284 201 223 241 283 291 284 290 299 300 299 273 248 245 245 241 237 223 211 207 210
61 78 40 9 16 262 288 169 251 258 232 212 240 270 282 278 299 322 320 320 311 308 304 304 325 328 330 334 299 255 235 225 232 251 257 277 292 292 292 287 269 263 260 254 237 226 231 214 211
97 126 149 192 218 271 330 249 262 278 286 228 214 246 277 292 300 291 294 295 292 294 301 304 312 309 315 309 293 285 268 250 251 250 250 259 264 269 280 282 272 259 254 256 237 236 242 225 225
110 98 145 125 121 17 291 295 309 8 4 8 349 333 288 287 301 302 312 306 296 295 287 273 278 297 304 297 299 300 293 280 275 274 272 276 275 276 286 281 273 275 272 263 245 246 254 237 230
98 132 89 100 130 265 297 282 264 277 287 311 318 294 288 297 312 316 313 304 300 295 295 304 289 281 288 296 294 300 298 284 277 288 294 290 289 293 299 305 301 303 297 277 246 252 252 228 241
55 71 86 96 137 154 251 273 236 220 230 238 260 264 272 280 288 298 300 300 307 325 328 314 305 292 290 295 304 317 307 300 303 301 294 297 304 299 285 280 286 295 295 284 247 264 266 239 264
115 137 138 137 214 164 177 269 303 213 213 220 259 275 282 280 287 295 308 326 334 328 320 310 294 278 272 271 293 308 315 337 335 320 316 321 319 316 308 309 310 300 300 289 232 266 282 234 250